Simultaneous Nadir Overpasses (SNOs) Predictions

Prediction of SNOs between GOES-16 and NOAA-20 Satellite Orbit:

Table of predicted SNOs for the next 14.0 days since TLE Epoch: 1/17/2020
Index Date Time (GOES-16) GOES-16 Lat,Lon NOAA-20 Lat,Lon Distance(km) Time Diff (sec)
1 01/18/2020 06:32:18 0.05, -75.19 0.35, -76.46 144.55 80
2 01/19/2020 06:10:55 0.05, -75.19 -0.69, -71.93 371.84 80
3 01/20/2020 18:35:32 -0.06, -75.20 -0.51, -77.24 231.26 80
4 01/21/2020 18:14:08 -0.06, -75.21 0.48, -72.70 285.52 80
5 01/23/2020 06:38:37 0.07, -75.21 0.66, -77.98 314.58 80
6 01/24/2020 06:17:12 0.07, -75.22 -0.32, -73.44 202.46 80
7 01/25/2020 18:41:50 -0.08, -75.24 -0.87, -78.75 399.56 80
8 01/26/2020 18:20:26 -0.07, -75.26 0.18, -74.22 118.05 80
9 01/28/2020 06:44:55 0.08, -75.27 1.03, -79.49 480.47 80
10 01/29/2020 06:23:31 0.08, -75.29 -0.02, -74.97 37.53 80




NCC Satellite Simultaneous Nadir Overpasses (SNOs) Prediction Service
